Location: Casilda
(33.0440°S, 61.1680°W)
Time: 09:39:10
(UTC-03:00)

ISS - Pass Details

Date: 22 September 2023
Orbit: 413 x 421 km, 51.6° (Epoch: 26 September)

Event Time Altitude Azimuth Distance (km) Brightness Sun altitude
Exits shadow 04:53:41 29° 132° (SE) 810 -1.8 -25.8°
Drops below altitude 10° 04:55:32 10° 133° (SE) 1,531 -0.1 -25.4°
Sets 04:57:39 0° 133° (SE) 2,402 1.1 -25.0°
